• Join FlightAware (Why Join?)
  • Login
  • US Flag 
12:33PM EST


 

Airport Tracker/Info


-or-


 

Live Flight TrackerFlight Track Log ✈ UAL464 ✈ 12-May-2013 ✈ KPDX - KORD

Flight Track Log - Related Links

Times and Time Zones

All times are in EDT time to prevent confusion due to time zone crossing. See the UAL464 flight status page for this flight to view local times or setup timezone preferences in your user account.

Time Position Orientation Groundspeed Altitude Reporting Facility
EDT Latitude Longitude Course Direction KTS MPH feet Rate Location/Type
04:54PM 45.5831 -122.5653 90° East 156 180 800  Level Seattle Center
04:55PM 45.5617 -122.4383 103° East 259 298 3,200 1,980 Climbing Seattle Center
04:56PM 45.5514 -122.3700 102° East 242 278 5,300 2,700 Climbing Seattle Center
04:57PM 45.6946 -121.9760 66° East  Level FlightAware Approximate
04:57PM 45.5717 -122.2628 75° East 292 336 7,900  Level Seattle Center
04:58PM 45.7334 -121.8130 90° East  Level FlightAware Approximate
04:58PM 45.6222 -122.1508 57° Northeast 332 382 10,300  Level Seattle Center
04:59PM 45.7334 -121.6384 90° East  Level FlightAware Approximate
04:59PM 45.6769 -122.0197 59° Northeast 385 443 11,700  Level Seattle Center
05:00PM 45.7331 -121.8864 59° Northeast 405 466 14,100 2,340 Climbing Seattle Center
05:01PM 45.7464 -121.7303 83° East 395 455 16,500 1,800 Climbing Seattle Center
05:02PM 45.7450 -121.5628 91° East 418 481 17,800 1,440 Climbing Seattle Center
05:03PM 45.7436 -121.3906 91° East 432 497 19,500 1,500 Climbing Seattle Center
05:04PM 45.7422 -121.2122 91° East 444 511 20,900 1,320 Climbing Seattle Center
05:05PM 45.7411 -121.0308 90° East 452 520 22,300 1,380 Climbing Seattle Center
05:06PM 45.7375 -120.8061 91° East 466 536 23,800 1,380 Climbing Seattle Center
05:07PM 45.7344 -120.6142 91° East 476 548 25,200 1,200 Climbing Seattle Center
05:08PM 45.7317 -120.4217 91° East 480 552 26,300 1,020 Climbing Seattle Center
05:09PM 45.7275 -120.2250 92° East 488 562 27,300 900 Climbing Seattle Center
05:10PM 45.7250 -120.0256 91° East 495 570 28,200 960 Climbing Seattle Center
05:11PM 45.7206 -119.8231 92° East 502 578 29,300 1,140 Climbing Seattle Center
05:12PM 45.7153 -119.6197 92° East 508 585 30,500 1,200 Climbing Seattle Center
05:13PM 45.7108 -119.4189 92° East 505 581 31,800 1,260 Climbing Seattle Center
05:14PM 45.7061 -119.2203 92° East 500 575 33,100 1,020 Climbing Seattle Center
05:15PM 45.7028 -119.0253 91° East 493 567 33,900 900 Climbing Seattle Center
05:16PM 45.7258 -118.8308 80° East 496 571 35,000 540 Climbing Seattle Center
05:17PM 45.7422 -118.6347 83° East 498 573 35,000 -60 Level Seattle Center
05:18PM 45.7483 -118.4422 87° East 500 575 34,900 -60 Descending Seattle Center
05:19PM 45.7547 -118.2456 87° East 498 573 34,900  Level Seattle Center
05:20PM 45.7592 -118.0494 88° East 496 571 34,900  Level Seattle Center
05:21PM 45.7653 -117.8558 87° East 492 566 34,900  Level Seattle Center
05:22PM 45.7711 -117.6603 87° East 494 568 35,000  Climbing Seattle Center
05:23PM 45.7769 -117.4233 88° East 496 571 34,900  Descending Seattle Center
05:24PM 45.7811 -117.2275 88° East 495 570 35,000  Climbing Seattle Center
05:25PM 45.7853 -117.0325 88° East 493 567 34,900 -60 Descending Seattle Center
05:26PM 45.7889 -116.8356 88° East 495 570 34,900  Level Seattle Center
05:27PM 45.7922 -116.6417 89° East 492 566 34,900  Level Seattle Center
05:28PM 45.7961 -116.4442 88° East 497 572 34,900  Level Seattle Center
05:29PM 45.7983 -116.2492 89° East 494 568 34,900  Level Seattle Center
05:30PM 45.8017 -116.0536 89° East 495 570 34,900  Level Seattle Center
05:31PM 45.8033 -115.8592 89° East 492 566 34,900  Level Seattle Center
05:32PM 45.8050 -115.6622 89° East 495 570 34,900  Level Seattle Center
05:33PM 45.8075 -115.4514 89° East 492 566 35,000  Climbing Seattle Center
05:34PM 45.8097 -115.2689 89° East 485 558 35,000  Level Seattle Center
05:36PM 45.8111 -115.0222 89° East 488 562 35,000  Level Salt Lake Center
05:37PM 45.8122 -114.8364 89° East 487 560 35,000  Level Salt Lake Center
05:38PM 45.8108 -114.6147 90° East 493 567 35,000  Level Salt Lake Center
05:39PM 45.8106 -114.4294 90° East 488 562 35,000 -60 Level Salt Lake Center
05:40PM 45.8100 -114.2322 90° East 487 560 34,900 -60 Descending Salt Lake Center
05:41PM 45.8100 -114.0381 90° East 488 562 34,900  Level Salt Lake Center
05:42PM 45.8083 -113.8453 91° East 487 560 34,900  Level Salt Lake Center
05:43PM 45.8067 -113.6244 91° East 488 562 35,000  Climbing Salt Lake Center
05:44PM 45.8014 -113.4300 92° East 487 560 35,000  Level Salt Lake Center
05:45PM 45.8000 -113.2342 91° East 491 565 35,000  Level Salt Lake Center
05:46PM 45.7981 -113.0372 91° East 493 567 35,000  Level Salt Lake Center
05:47PM 45.7961 -112.8417 91° East 492 566 35,000 -60 Level Salt Lake Center
05:48PM 45.7925 -112.6467 91° East 491 565 34,900  Descending Salt Lake Center
05:49PM 45.7883 -112.4175 91° East 482 555 35,000  Climbing Salt Lake Center
05:50PM 45.7856 -112.2228 91° East 487 560 35,000  Level Salt Lake Center
05:51PM 45.7814 -112.0311 92° East 484 557 35,000  Level Salt Lake Center
05:52PM 45.7767 -111.8403 92° East 483 556 35,000  Level Salt Lake Center
05:53PM 45.7719 -111.6492 92° East 482 555 35,000  Level Salt Lake Center
05:54PM 45.7669 -111.4583 92° East 481 554 35,000  Level Salt Lake Center
05:55PM 45.7611 -111.2694 92° East 480 552 35,000  Level Salt Lake Center
05:56PM 45.7550 -111.0497 92° East 488 562 35,000  Level Salt Lake Center
05:57PM 45.7492 -110.8603 92° East 483 556 35,000  Level Salt Lake Center
05:58PM 45.7433 -110.6725 92° East 475 547 35,000  Level Salt Lake Center
05:59PM 45.7369 -110.4869 93° East 473 544 35,000  Level Salt Lake Center
06:00PM 45.7292 -110.2761 93° East 474 545 35,000  Level Salt Lake Center
06:01PM 45.7219 -110.0928 93° East 480 552 35,000  Level Salt Lake Center
06:02PM 45.7136 -109.8819 93° East 477 549 35,000  Level Salt Lake Center
06:03PM 45.7061 -109.6997 93° East 475 547 35,000 -60 Level Salt Lake Center
06:04PM 45.6983 -109.5197 93° East 472 543 34,900  Descending Salt Lake Center
06:05PM 45.6881 -109.3106 94° East 474 545 35,000  Climbing Salt Lake Center
06:06PM 45.6794 -109.1297 94° East 474 545 34,900  Descending Salt Lake Center
06:07PM 45.6683 -108.9200 94° East 474 545 35,000 60 Climbing Salt Lake Center
06:08PM 45.6592 -108.7378 94° East 480 552 35,100 480 Climbing Salt Lake Center
06:09PM 45.6489 -108.5561 95° East 478 550 36,100 900 Climbing Salt Lake Center
06:10PM 45.6403 -108.3494 93° East 467 537 37,000 420 Climbing Salt Lake Center
06:11PM 45.6292 -108.1708 95° East 469 540 37,000  Level Salt Lake Center
06:12PM 45.6192 -107.9947 95° East 465 535 37,000  Level Salt Lake Center
06:13PM 45.6072 -107.7864 95° East 469 540 37,000  Level Salt Lake Center
06:14PM 45.5967 -107.6083 95° East 468 539 37,000  Level Salt Lake Center
06:15PM 45.5831 -107.3997 95° East 470 541 37,000  Level Salt Lake Center
06:17PM 45.5719 -107.2228 95° East 467 537 37,000  Level Salt Lake Center
06:18PM 45.5589 -107.0425 96° East 474 545 37,000  Level Salt Lake Center
06:19PM 45.5444 -106.8358 96° East 471 542 37,000  Level Salt Lake Center
06:20PM 45.5356 -106.6628 94° East 463 533 37,000  Level Salt Lake Center
06:21PM 45.5228 -106.4903 96° East 459 528 37,000 -60 Level Salt Lake Center
06:22PM 45.5075 -106.2869 96° East 460 529 36,900  Descending Salt Lake Center
06:23PM 45.4958 -106.1122 95° East 462 532 37,000  Climbing Salt Lake Center
06:24PM 45.4797 -105.9064 96° East 468 539 37,000  Level Salt Lake Center
06:25PM 45.4650 -105.7289 97° East 471 542 37,000  Level Salt Lake Center
06:26PM 45.4511 -105.5508 96° East 474 545 37,000  Level Salt Lake Center
06:27PM 45.4344 -105.3444 96° East 471 542 37,000  Level Salt Lake Center
06:28PM 45.4208 -105.1656 96° East 474 545 37,000  Level Salt Lake Center
06:29PM 45.4022 -104.9564 97° East 475 547 37,000  Level Salt Lake Center
06:30PM 45.3869 -104.7806 97° East 471 542 37,000 -60 Level Salt Lake Center
06:31PM 45.3725 -104.6078 97° East 464 534 36,900 -60 Descending Salt Lake Center
06:32PM 45.3547 -104.4208 98° East 463 533 36,900  Level Salt Lake Center
06:33PM 45.3392 -104.2414 97° East 461 531 36,900  Level Salt Lake Center
06:34PM 45.3219 -104.0594 98° East 465 535 36,900  Level Salt Lake Center
06:35PM 45.3042 -103.8775 98° East 466 536 36,900  Level Salt Lake Center
06:36PM 45.2839 -103.6597 97° East 465 535 36,900  Level Salt Lake Center
06:37PM 45.2664 -103.4772 98° East 467 537 36,900  Level Salt Lake Center
06:38PM 45.2481 -103.2972 98° East 465 535 36,900  Level Salt Lake Center
06:39PM 45.2214 -103.0375 98° East 466 536 36,900  Level Minneapolis Center
06:40PM 45.2031 -102.8550 98° East 468 539 37,000  Climbing Minneapolis Center
06:42PM 45.1833 -102.6714 99° East 470 541 37,000  Level Minneapolis Center
06:43PM 45.1642 -102.4889 98° East 471 542 37,000  Level Minneapolis Center
06:44PM 45.1411 -102.2725 99° East 466 536 37,000  Level Minneapolis Center
06:45PM 45.1203 -102.0919 99° East 465 535 37,000  Level Minneapolis Center
06:46PM 45.0992 -101.9097 99° East 468 539 37,000  Level Minneapolis Center
06:47PM 45.0781 -101.7294 99° East 468 539 37,000  Level Minneapolis Center
06:48PM 45.0342 -101.5500 109° East 479 551 37,000  Level Minneapolis Center
06:49PM 44.9878 -101.3736 110° East 480 552 37,000  Level Minneapolis Center
06:50PM 44.9400 -101.1969 111° Southeast 482 555 37,000 -60 Level Minneapolis Center
06:51PM 44.8853 -100.9878 110° East 479 551 36,900  Descending Minneapolis Center
06:52PM 44.8378 -100.8131 111° Southeast 478 550 37,000  Climbing Minneapolis Center
06:53PM 44.7889 -100.6383 111° Southeast 481 554 37,000  Level Minneapolis Center
06:54PM 44.7414 -100.4636 111° Southeast 482 555 37,000  Level Minneapolis Center
06:55PM 44.6939 -100.2906 111° Southeast 480 552 37,000  Level Minneapolis Center
06:56PM 44.6356 -100.0836 112° Southeast 480 552 37,000  Level Minneapolis Center
06:57PM 44.5869 -99.9114 112° Southeast 479 551 37,000  Level Minneapolis Center
06:58PM 44.5392 -99.7400 111° Southeast 478 550 37,000  Level Minneapolis Center
06:59PM 44.4900 -99.5667 112° Southeast 480 552 37,000  Level Minneapolis Center
07:00PM 44.4408 -99.3947 112° Southeast 479 551 37,000  Level Minneapolis Center
07:01PM 44.3822 -99.1875 112° Southeast 478 550 37,000  Level Minneapolis Center
07:02PM 44.3306 -99.0156 113° Southeast 481 554 37,000  Level Minneapolis Center
07:03PM 44.2814 -98.8414 111° Southeast 483 556 37,000  Level Minneapolis Center
07:04PM 44.2297 -98.6686 113° Southeast 484 557 37,000  Level Minneapolis Center
07:05PM 44.1789 -98.5003 113° Southeast 481 554 37,000  Level Minneapolis Center
07:06PM 44.1278 -98.3283 112° Southeast 483 556 37,000  Level Minneapolis Center
07:07PM 44.0653 -98.1239 113° Southeast 480 552 37,000  Level Minneapolis Center
07:08PM 44.0142 -97.9525 112° Southeast 481 554 37,000  Level Minneapolis Center
07:09PM 43.9633 -97.7842 113° Southeast 477 549 37,000  Level Minneapolis Center
07:10PM 43.9106 -97.6161 114° Southeast 478 550 37,000  Level Minneapolis Center
07:11PM 43.8594 -97.4464 113° Southeast 479 551 37,000  Level Minneapolis Center
07:12PM 43.8064 -97.2786 114° Southeast 478 550 37,000  Level Minneapolis Center
07:14PM 43.7436 -97.0781 113° Southeast 476 548 37,000  Level Minneapolis Center
07:15PM 43.7175 -96.9081 102° East 458 527 37,000  Level Minneapolis Center
07:16PM 43.6981 -96.7408 99° East 446 513 37,000  Level Minneapolis Center
07:17PM 43.6786 -96.5736 99° East 444 511 37,000  Level Minneapolis Center
07:18PM 43.6589 -96.4064 99° East 445 512 37,000  Level Minneapolis Center
07:19PM 43.6381 -96.2392 100° East 446 513 37,000  Level Minneapolis Center
07:20PM 43.6136 -96.0378 99° East 447 514 37,000  Level Minneapolis Center
07:21PM 43.5931 -95.8719 100° East 444 511 37,000  Level Minneapolis Center
07:22PM 43.5731 -95.7092 100° East 438 504 37,000  Level Minneapolis Center
07:23PM 43.5519 -95.5436 100° East 439 505 37,000  Level Minneapolis Center
07:24PM 43.5314 -95.3814 100° East 435 501 37,000  Level Minneapolis Center
07:25PM 43.5100 -95.2169 100° East 438 504 37,000  Level Minneapolis Center
07:26PM 43.4831 -95.0192 101° East 439 505 37,000  Level Minneapolis Center
07:27PM 43.4617 -94.8561 100° East 437 503 37,000  Level Minneapolis Center
07:28PM 43.4394 -94.6917 100° East 438 504 37,000  Level Minneapolis Center
07:29PM 43.4169 -94.5289 101° East 436 502 37,000 -60 Level Minneapolis Center
07:30PM 43.3942 -94.3656 101° East 437 503 36,900  Descending Minneapolis Center
07:31PM 43.3703 -94.1942 101° East 438 504 37,000  Climbing Minneapolis Center
07:32PM 43.3447 -94.0289 102° East 443 510 37,000  Level Minneapolis Center
07:33PM 43.3217 -93.8656 101° East 443 510 37,000  Level Minneapolis Center
07:34PM 43.2969 -93.7014 102° East 442 509 37,000  Level Minneapolis Center
07:35PM 43.2706 -93.5042 100° East 441 507 37,000  Level Minneapolis Center
07:36PM 43.2461 -93.3375 101° East 445 512 37,000  Level Minneapolis Center
07:37PM 43.2194 -93.1697 102° East 450 518 37,000  Level Minneapolis Center
07:38PM 43.1956 -92.9994 101° East 455 524 37,000  Level Minneapolis Center
07:39PM 43.1694 -92.8278 102° East 461 531 37,000  Level Minneapolis Center
07:40PM 43.1425 -92.6531 102° East 469 540 37,000 -240 Level Minneapolis Center
07:41PM 43.1167 -92.4797 101° East 471 542 36,600 -840 Descending Minneapolis Center
07:42PM 43.0844 -92.2789 102° East 456 525 35,400 -1,080 Descending Minneapolis Center
07:43PM 43.0581 -92.1092 102° East 459 528 34,400 -1,860 Descending Minneapolis Center
07:44PM 43.0306 -91.9389 102° East 459 528 31,600 -1,740 Descending Minneapolis Center
07:45PM 43.0031 -91.7639 102° East 464 534 30,900 -660 Descending Minneapolis Center
07:46PM 42.9756 -91.5847 102° East 473 544 30,300 -600 Descending Minneapolis Center
07:47PM 42.9467 -91.4069 102° East 475 547 29,700 -540 Descending Minneapolis Center
07:48PM 42.9178 -91.2297 102° East 476 548 29,200 -360 Descending Minneapolis Center
07:49PM 42.8892 -91.0486 102° East 485 558 29,000 -180 Descending Minneapolis Center
07:50PM 42.8722 -90.9419 102° East 489 563 29,000  Level Chicago Center
07:51PM 42.8364 -90.7242 103° East 493 567 29,000  Level Chicago Center
07:52PM 42.8053 -90.5425 103° East 496 571 29,000  Level Chicago Center
07:53PM 42.7747 -90.3594 103° East 498 573 29,000 -300 Level Chicago Center
07:54PM 42.7425 -90.1761 103° East 500 575 28,400 -1,380 Descending Chicago Center
07:55PM 42.7122 -89.9928 103° East 501 577 26,200 -2,520 Descending Chicago Center
07:56PM 42.6803 -89.8008 103° East 482 555 23,300 -2,460 Descending Chicago Center
07:57PM 42.6444 -89.6011 104° East 470 541 21,200 -1,920 Descending Chicago Center
07:58PM 42.6036 -89.4364 109° East 464 534 19,400 -1,920 Descending Chicago Center
07:59PM 42.5658 -89.2781 108° East 450 518 17,300 -2,100 Descending Chicago Center
08:00PM 42.5292 -89.1267 108° East 428 493 15,100 -1,800 Descending Chicago Center
08:01PM 42.4939 -88.9814 108° East 411 473 13,600 -1,500 Descending Chicago Center
08:02PM 42.4528 -88.8169 109° East 397 457 12,100 -1,260 Descending Chicago Center
08:04PM 42.4186 -88.6781 108° East 391 450 11,100 -1,020 Descending Chicago Center
08:05PM 42.3867 -88.5475 108° East 368 423 10,000 -1,020 Descending Chicago Center
08:06PM 42.3425 -88.4539 123° Southeast 318 366 9,000 -540 Descending Chicago Center
08:07PM 42.2744 -88.4281 164° South 281 323 9,000 -540 Level Chicago Center
08:08PM 42.1939 -88.4139 173° South 246 283 8,000 -780 Descending Chicago Center
08:09PM 42.1358 -88.4064 175° South 217 250 7,500 -780 Descending Chicago Center
08:10PM 42.0828 -88.4008 176° South 196 226 6,400 -780 Descending Chicago Center
08:11PM 42.0300 -88.3883 170° South 195 224 6,000 -360 Descending Chicago Center
08:12PM 41.9794 -88.3708 166° South 193 222 5,700 -420 Descending Chicago Center
08:13PM 41.9672 -88.2828 101° East 206 237 5,200 -480 Descending Chicago Center
08:14PM 41.9672 -88.2114 90° East 194 223 4,800 -780 Descending Chicago Center
08:15PM 41.9678 -88.1383 89° East 195 224 3,700 -1,140 Descending Chicago Center
08:16PM 41.9667 -88.0500 91° East 178 205 2,500 -1,020 Descending Chicago TRACON
08:17PM 41.9667 -88.0000 90° East 152 175 1,600 -840 Descending Chicago TRACON
08:18PM 41.9667 -87.9500 90° East 135 155 900 -720 Descending Chicago TRACON